Starlink 11572

operational
NORAD ID: 62990 Int'l Des: 2025-031 Owner: SPXS Country: US Constellation: starlink
LEOCIRCULAR

About Starlink 11572

Description loading...

Live Position

Loading 3D Globe...

Upcoming Passes

Altitude History

Altitude vs Time

uPlot chart will show altitude changes over time

Two-Line Element Set

1 62990U 25031K 25304.29295132 .00298077 00000-0 22311-2 0 9998
2 62990 42.9990 61.2431 0002258 263.2487 96.8124 15.70978797 42395
Epoch: Oct 31, 2025 • Age: 7 hours

Current Status

Altitude 356.9 km
Velocity 7.70 km/s
Sub-Earth Point -10.79°S, 1.65°E
Launch Date Feb 11, 2025
Age 0.7 years
Type internet

Technical Details

Classification Payload
Mass 960.00 kg
Dry Mass 910.00 kg
Total Mass 960.00 kg
Length 0.30 m
Diameter 4.10 m
Span 29.00 m
Shape Box + pan
Manufacturer SPXS
Bus Type Starlink V2MD
Phase Status In Orbit
Owner/State SPXS/US

Large Constellations

Loading constellations...